KD4TJG Weather Reports


Display with metric or nautical units.
time (UTC)temp
F
wind
direction
speed
MPH
gust
MPH
rain 1hr
in
rain 24hr
in
rain mn
in
humidity
%
barometer
mb
20260902230524 93 225 1.0 4.0 0.00 0.00 0.00 51 1017.1
20260902230052 93 195 1.0 4.0 0.00 0.00 0.00 50 1017.1
20260902225524 94 174 1.0 7.0 0.00 0.00 0.00 49 1017.0
20260902225025 94 207 3.0 7.0 0.00 0.00 0.00 48 1017.0
20260902224818 95 230 1.0 5.0 0.00 0.00 0.00 49 1019.0
20260902224547 95 245 2.0 6.0 0.00 0.00 0.00 48 1017.0
20260902224027 95 216 2.0 7.0 0.00 0.00 0.00 48 1016.8
20260902223751 96 196 2.0 7.0 0.00 0.00 0.00 47 1018.9
20260902223523 95 170 3.0 7.0 0.00 0.00 0.00 48 1016.9
20260902223057 95 203 2.0 8.0 0.00 0.00 0.00 47 1016.8
20260902222725 96 163 3.0 7.0 0.00 0.00 0.00 48 1018.9
20260902222523 95 215 2.0 8.0 0.00 0.00 0.00 46 1016.8
20260902222024 96 215 4.0 8.0 0.00 0.00 0.00 46 1016.9
20260902221612 96 232 2.0 7.0 0.00 0.00 0.00 46 1017.0
20260902221024 97 162 2.0 6.0 0.00 0.00 0.00 44 1017.0
20260902220524 97 214 1.0 4.0 0.00 0.00 0.00 46 1017.0
20260902220512 97 228 1.0 3.0 0.00 0.00 0.00 46 1019.0
20260902220054 97 160 2.0 4.0 0.00 0.00 0.00 44 1017.0
20260902215523 97 170 1.0 3.0 0.00 0.00 0.00 45 1016.9
20260902215516 97 170 1.0 4.0 0.00 0.00 0.00 45 1018.9
20260902215023 97 160 1.0 4.0 0.00 0.00 0.00 44 1017.0
20260902214540 97 199 1.0 6.0 0.00 0.00 0.00 44 1017.1
20260902214523 98 199 1.0 4.0 0.00 0.00 0.00 44 1019.1
20260902214024 97 0 1.0 6.0 0.00 0.00 0.00 43 1017.0
20260902213524 97 201 1.0 4.0 0.00 0.00 0.00 45 1017.0
20260902213516 97 180 1.0 3.0 0.00 0.00 0.00 45 1019.0
20260902213056 96 0 1.0 7.0 0.00 0.00 0.00 48 1017.1
20260902212524 97 228 2.0 7.0 0.00 0.00 0.00 47 1017.0
20260902212442 97 255 1.0 5.0 0.00 0.00 0.00 47 1019.1
20260902212025 97 0 2.0 6.0 0.00 0.00 0.00 43 1017.0
20260902211600 97 171 2.0 6.0 0.00 0.00 0.00 45 1017.1
20260902211443 98 168 1.0 5.0 0.00 0.00 0.00 43 1019.0
20260902211025 98 216 2.0 5.0 0.00 0.00 0.00 44 1017.0
20260902210523 98 133 1.0 5.0 0.00 0.00 0.00 43 1017.0
20260902210432 98 129 1.0 4.0 0.00 0.00 0.00 44 1019.0
20260902210057 97 207 2.0 5.0 0.00 0.00 0.00 44 1017.0
20260902205525 97 255 0.0 3.0 0.00 0.00 0.00 45 1016.9
20260902205421 97 255 0.0 4.0 0.00 0.00 0.00 45 1019.0
20260902205025 96 36 2.0 5.0 0.00 0.00 0.00 43 1017.1
20260902204550 97 0 1.0 7.0 0.00 0.00 0.00 44 1017.0
20260902204410 97 247 2.0 7.0 0.00 0.00 0.00 45 1019.1
20260902204024 97 276 2.0 8.0 0.00 0.00 0.00 43 1017.1
20260902203524 98 254 2.0 9.0 0.00 0.00 0.00 42 1017.1
20260902203338 98 218 3.0 7.0 0.00 0.00 0.00 43 1019.2
20260902203049 98 195 2.0 9.0 0.00 0.00 0.00 44 1017.2
20260902202524 98 214 3.0 7.0 0.00 0.00 0.00 42 1017.1
20260902202333 98 234 2.0 5.0 0.00 0.00 0.00 43 1019.2
20260902202024 98 266 2.0 6.0 0.00 0.00 0.00 42 1017.1
20260902201603 98 336 2.0 8.0 0.00 0.00 0.00 44 1017.2
20260902201354 98 139 2.0 7.0 0.00 0.00 0.00 44 1019.2
20260902201024 98 185 4.0 9.0 0.00 0.00 0.00 44 1017.2
20260902200526 98 102 2.0 9.0 0.00 0.00 0.00 43 1017.3
20260902200412 98 89 3.0 7.0 0.00 0.00 0.00 43 1019.4
20260902195528 98 280 2.0 7.0 0.00 0.00 0.00 46 1017.4
20260902195357 98 218 2.0 5.0 0.00 0.00 0.00 45 1019.4
20260902195025 97 105 2.0 6.0 0.00 0.00 0.00 43 1017.5
20260902194550 97 189 2.0 6.0 0.00 0.00 0.00 44 1017.6
20260902194355 97 216 1.0 4.0 0.00 0.00 0.00 44 1019.6
20260902194029 97 0 1.0 4.0 0.00 0.00 0.00 43 1017.7
20260902193521 97 226 2.0 4.0 0.00 0.00 0.00 44 1017.8
20260902193341 98 197 1.0 3.0 0.00 0.00 0.00 43 1019.8
20260902193042 97 185 1.0 4.0 0.00 0.00 0.00 45 1017.8
20260902192526 97 195 1.0 6.0 0.00 0.00 0.00 45 1017.9
20260902192320 98 204 1.0 4.0 0.00 0.00 0.00 45 1020.0
20260902192025 97 102 1.0 6.0 0.00 0.00 0.00 43 1017.9
20260902191553 97 149 0.0 4.0 0.00 0.00 0.00 44 1017.9
20260902191332 98 33 1.0 7.0 0.00 0.00 0.00 43 1020.0
20260902191024 98 189 1.0 8.0 0.00 0.00 0.00 45 1018.0
20260902190524 97 260 1.0 8.0 0.00 0.00 0.00 46 1018.1
20260902190316 98 312 1.0 7.0 0.00 0.00 0.00 45 1020.1
20260902190053 97 229 2.0 8.0 0.00 0.00 0.00 46 1018.1
20260902185525 97 199 1.0 8.0 0.00 0.00 0.00 45 1018.1
20260902185025 97 222 2.0 9.0 0.00 0.00 0.00 46 1018.1
20260902184544 97 253 4.0 9.0 0.00 0.00 0.00 45 1018.2
20260902184115 97 226 3.0 8.0 0.00 0.00 0.00 45 1020.2
20260902184023 97 215 3.0 9.0 0.00 0.00 0.00 44 1018.3
20260902183524 96 234 5.0 9.0 0.00 0.00 0.00 44 1018.3
20260902183118 97 163 2.0 5.0 0.00 0.00 0.00 44 1020.4
20260902183056 96 209 1.0 6.0 0.00 0.00 0.00 47 1018.3
20260902182524 97 175 3.0 7.0 0.00 0.00 0.00 44 1018.3
20260902182138 97 189 3.0 6.0 0.00 0.00 0.00 45 1020.4
20260902182025 97 125 3.0 7.0 0.00 0.00 0.00 45 1018.4
20260902181559 96 143 2.0 8.0 0.00 0.00 0.00 46 1018.5
20260902181024 96 191 2.0 12.0 0.00 0.00 0.00 44 1018.4
20260902180524 96 168 2.0 12.0 0.00 0.00 0.00 47 1018.5
20260902180056 96 147 4.0 10.0 0.00 0.00 0.00 46 1018.5
20260902180030 97 147 4.0 9.0 0.00 0.00 0.00 46 1020.6
20260902175524 96 164 5.0 9.0 0.00 0.00 0.00 46 1018.5
20260902175025 95 168 1.0 5.0 0.00 0.00 0.00 47 1018.6
20260902174544 95 217 1.0 5.0 0.00 0.00 0.00 48 1018.7
20260902174025 95 276 2.0 5.0 0.00 0.00 0.00 49 1018.7
20260902173527 95 350 1.0 6.0 0.00 0.00 0.00 47 1018.7
20260902173052 96 224 2.0 8.0 0.00 0.00 0.00 47 1018.8
20260902172825 95 193 3.0 7.0 0.00 0.00 0.00 49 1020.8
20260902172524 94 170 2.0 9.0 0.00 0.00 0.00 48 1018.8
20260902172027 95 257 4.0 9.0 0.00 0.00 0.00 49 1018.9
20260902171849 95 172 2.0 7.0 0.00 0.00 0.00 49 1020.9
20260902171601 95 184 3.0 9.0 0.00 0.00 0.00 50 1018.9
20260902171023 94 259 2.0 8.0 0.00 0.00 0.00 50 1019.0
20260902170852 95 177 1.0 5.0 0.00 0.00 0.00 49 1021.1
20260902170523 94 239 2.0 7.0 0.00 0.00 0.00 51 1019.0
20260902170054 94 261 1.0 7.0 0.00 0.00 0.00 50 1019.2
20260902165525 94 289 1.0 7.0 0.00 0.00 0.00 49 1019.3
20260902165029 94 352 2.0 7.0 0.00 0.00 0.00 49 1019.1
20260902164701 94 157 2.0 6.0 0.00 0.00 0.00 48 1021.3
20260902164558 94 203 4.0 7.0 0.00 0.00 0.00 49 1019.4
20260902164024 94 237 1.0 4.0 0.00 0.00 0.00 49 1019.4
20260902163524 94 216 0.0 4.0 0.00 0.00 0.00 50 1019.5
20260902163048 93 0 1.0 9.0 0.00 0.00 0.00 49 1019.4
20260902162529 94 320 2.0 7.0 0.00 0.00 0.00 49 1021.5
20260902162525 93 352 2.0 9.0 0.00 0.00 0.00 48 1019.5
20260902162022 93 253 3.0 9.0 0.00 0.00 0.00 49 1019.5
20260902161601 93 255 1.0 5.0 0.00 0.00 0.00 51 1019.6
20260902161550 94 215 1.0 4.0 0.00 0.00 0.00 51 1021.5
20260902161024 93 27 1.0 3.0 0.00 0.00 0.00 50 1019.6
20260902160610 93 237 1.0 3.0 0.00 0.00 0.00 49 1021.5
20260902160525 93 0 1.0 4.0 0.00 0.00 0.00 50 1019.5
20260902160051 93 148 1.0 5.0 0.00 0.00 0.00 51 1019.5
20260902155549 93 255 2.0 4.0 0.00 0.00 0.00 53 1021.6
20260902155527 92 287 1.0 6.0 0.00 0.00 0.00 52 1019.6
20260902155026 92 204 3.0 6.0 0.00 0.00 0.00 51 1019.7
20260902154607 91 204 1.0 5.0 0.00 0.00 0.00 54 1019.5
20260902154525 92 204 1.0 4.0 0.00 0.00 0.00 54 1021.6
20260902154027 92 253 1.0 5.0 0.00 0.00 0.00 53 1019.7
20260902153526 92 359 1.0 5.0 0.00 0.00 0.00 54 1019.7
20260902153523 92 359 1.0 4.0 0.00 0.00 0.00 54 1021.7
20260902153046 91 116 2.0 5.0 0.00 0.00 0.00 54 1019.7
20260902152526 92 5 1.0 5.0 0.00 0.00 0.00 55 1021.6
20260902152025 91 326 1.0 6.0 0.00 0.00 0.00 53 1019.7
20260902151555 91 292 1.0 7.0 0.00 0.00 0.00 55 1019.7
20260902151543 91 264 1.0 5.0 0.00 0.00 0.00 55 1021.8
20260902151025 90 75 2.0 7.0 0.00 0.00 0.00 56 1019.7
20260902150553 91 45 2.0 5.0 0.00 0.00 0.00 58 1021.8
20260902150528 90 93 2.0 6.0 0.00 0.00 0.00 58 1019.6
20260902150053 90 149 2.0 8.0 0.00 0.00 0.00 58 1019.6
20260902145606 90 70 3.0 7.0 0.00 0.00 0.00 61 1021.7
20260902145525 90 85 2.0 8.0 0.00 0.00 0.00 59 1019.6
20260902145030 89 91 3.0 8.0 0.00 0.00 0.00 59 1019.6
20260902144549 89 127 1.0 7.0 0.00 0.00 0.00 61 1019.5
20260902144544 89 105 1.0 7.0 0.00 0.00 0.00 61 1021.5
20260902144024 89 350 2.0 6.0 0.00 0.00 0.00 62 1019.6
20260902143526 89 341 1.0 4.0 0.00 0.00 0.00 63 1019.6
20260902143517 89 341 1.0 3.0 0.00 0.00 0.00 63 1021.6
20260902143041 88 45 1.0 3.0 0.00 0.00 0.00 64 1019.7
20260902142524 87 303 0.0 2.0 0.00 0.00 0.00 66 1019.4
20260902142500 88 303 0.0 1.0 0.00 0.00 0.00 66 1021.5
20260902142028 87 343 0.0 3.0 0.00 0.00 0.00 65 1019.4
20260902141549 87 349 0.0 3.0 0.00 0.00 0.00 66 1019.5
20260902141459 87 320 0.0 1.0 0.00 0.00 0.00 66 1021.5
20260902141027 86 0 1.0 3.0 0.00 0.00 0.00 66 1019.4
20260902140525 86 347 0.0 2.0 0.00 0.00 0.00 66 1019.4
20260902140510 86 18 0.0 1.0 0.00 0.00 0.00 67 1021.4
20260902140045 86 281 0.0 2.0 0.00 0.00 0.00 69 1019.3
20260902135525 85 296 0.0 1.0 0.00 0.00 0.00 72 1021.4
20260902135523 85 296 0.0 2.0 0.00 0.00 0.00 72 1019.4
20260902135024 85 0 0.0 2.0 0.00 0.00 0.00 74 1019.4
20260902134546 84 0 0.0 2.0 0.00 0.00 0.00 75 1019.3
20260902134511 84 137 0.0 1.0 0.00 0.00 0.00 75 1021.4
20260902134025 83 151 0.0 2.0 0.00 0.00 0.00 76 1019.4
20260902133526 83 276 0.0 3.0 0.00 0.00 0.00 77 1019.3
20260902133507 83 276 0.0 1.0 0.00 0.00 0.00 77 1021.3
20260902133100 82 0 1.0 3.0 0.00 0.00 0.00 77 1019.4
20260902132530 81 0 0.0 2.0 0.00 0.00 0.00 78 1019.4
20260902132521 82 141 0.0 0.0 0.00 0.00 0.00 78 1021.4
20260902132024 81 141 0.0 3.0 0.00 0.00 0.00 79 1019.3
20260902131548 81 149 1.0 3.0 0.00 0.00 0.00 80 1019.4
20260902131452 81 149 0.0 1.0 0.00 0.00 0.00 80 1021.6
20260902131024 80 0 0.0 2.0 0.00 0.00 0.00 82 1019.5
20260902130523 79 96 0.0 1.0 0.00 0.00 0.00 83 1019.5
20260902130517 79 96 0.0 0.0 0.00 0.00 0.00 83 1021.5
20260902130045 78 0 0.0 2.0 0.00 0.00 0.00 83 1019.5
20260902125526 78 0 0.0 2.0 0.00 0.00 0.00 85 1019.6
20260902125027 77 0 0.0 2.0 0.00 0.00 0.00 86 1019.6
20260902124541 76 0 0.0 1.0 0.00 0.00 0.00 87 1019.7
20260902124335 76 96 0.0 0.0 0.00 0.00 0.00 87 1021.6
20260902124024 75 0 0.0 1.0 0.00 0.00 0.00 88 1019.6
20260902123524 74 0 0.0 1.0 0.00 0.00 0.00 88 1019.6
20260902123341 75 96 0.0 0.0 0.00 0.00 0.00 88 1021.6
20260902123048 74 0 0.0 1.0 0.00 0.00 0.00 88 1019.6
20260902122528 73 0 0.0 1.0 0.00 0.00 0.00 88 1019.6
20260902122025 72 0 0.0 1.0 0.00 0.00 0.00 88 1019.7
20260902121546 71 0 0.0 1.0 0.00 0.00 0.00 88 1019.7
20260902121218 71 96 0.0 0.0 0.00 0.00 0.00 88 1021.6
20260902121024 71 0 0.0 1.0 0.00 0.00 0.00 88 1019.6
20260902120523 70 0 0.0 1.0 0.00 0.00 0.00 88 1019.6
20260902120206 71 186 0.0 0.0 0.00 0.00 0.00 88 1021.5
20260902120046 70 0 0.0 0.0 0.00 0.00 0.00 88 1019.5
20260902115525 70 0 0.0 0.0 0.00 0.00 0.00 88 1019.5
20260902115206 70 186 0.0 0.0 0.00 0.00 0.00 88 1021.4
20260902115025 70 0 0.0 1.0 0.00 0.00 0.00 88 1019.3
20260902114546 69 0 0.0 1.0 0.00 0.00 0.00 88 1019.3
20260902114133 70 186 0.0 0.0 0.00 0.00 0.00 88 1021.3
20260902114023 69 0 0.0 0.0 0.00 0.00 0.00 88 1019.3
20260902113524 69 0 0.0 1.0 0.00 0.00 0.00 88 1019.2
20260902113127 69 186 0.0 0.0 0.00 0.00 0.00 88 1021.2
20260902113046 68 0 0.0 1.0 0.00 0.00 0.00 88 1019.2
20260902112523 69 0 0.0 0.0 0.00 0.00 0.00 88 1019.1
20260902112145 69 186 0.0 0.0 0.00 0.00 0.00 88 1021.1
20260902112024 68 0 0.0 0.0 0.00 0.00 0.00 88 1019.0
20260902111541 68 0 0.0 0.0 0.00 0.00 0.00 88 1018.9
20260902111139 68 186 0.0 0.0 0.00 0.00 0.00 88 1021.0
20260902111024 68 0 0.0 0.0 0.00 0.00 0.00 88 1018.9
20260902110524 68 0 0.0 0.0 0.00 0.00 0.00 88 1019.0
20260902110125 69 186 0.0 0.0 0.00 0.00 0.00 88 1021.0
20260902110048 69 0 0.0 0.0 0.00 0.00 0.00 88 1019.0
20260902105524 68 0 0.0 1.0 0.00 0.00 0.00 88 1019.0
20260902105140 69 186 0.0 0.0 0.00 0.00 0.00 88 1021.0
20260902105025 68 0 0.0 1.0 0.00 0.00 0.00 88 1018.9
20260902104550 68 0 0.0 0.0 0.00 0.00 0.00 88 1018.9
20260902104138 69 186 0.0 0.0 0.00 0.00 0.00 88 1021.0
20260902104028 68 0 0.0 0.0 0.00 0.00 0.00 88 1019.0
20260902103525 68 0 0.0 0.0 0.00 0.00 0.00 88 1018.9
20260902103143 69 186 0.0 0.0 0.00 0.00 0.00 88 1021.0
20260902103047 69 0 0.0 0.0 0.00 0.00 0.00 88 1018.9
20260902102526 69 0 0.0 0.0 0.00 0.00 0.00 88 1019.0
20260902102140 69 186 0.0 0.0 0.00 0.00 0.00 88 1021.0
20260902102025 68 0 0.0 0.0 0.00 0.00 0.00 88 1018.9
20260902101557 69 0 0.0 0.0 0.00 0.00 0.00 88 1018.9
20260902101026 69 0 0.0 0.0 0.00 0.00 0.00 88 1018.8
20260902100524 69 0 0.0 0.0 0.00 0.00 0.00 88 1018.8
20260902100052 69 0 0.0 0.0 0.00 0.00 0.00 88 1018.8
20260902100011 69 186 0.0 0.0 0.00 0.00 0.00 88 1020.9
20260902095524 68 0 0.0 0.0 0.00 0.00 0.00 88 1018.8
20260902095024 69 0 0.0 0.0 0.00 0.00 0.00 88 1018.8
20260902095001 69 186 0.0 0.0 0.00 0.00 0.00 88 1020.9
20260902094544 69 0 0.0 0.0 0.00 0.00 0.00 88 1018.7
20260902094024 69 0 0.0 0.0 0.00 0.00 0.00 88 1018.8
20260902093934 70 186 0.0 0.0 0.00 0.00 0.00 88 1020.8
20260902093525 69 0 0.0 0.0 0.00 0.00 0.00 88 1018.8
20260902093052 69 0 0.0 0.0 0.00 0.00 0.00 88 1018.8
20260902092922 70 186 0.0 0.0 0.00 0.00 0.00 88 1020.8
20260902092524 69 0 0.0 0.0 0.00 0.00 0.00 88 1018.7
20260902092027 69 0 0.0 0.0 0.00 0.00 0.00 88 1018.8
20260902091928 70 186 0.0 0.0 0.00 0.00 0.00 88 1020.8
20260902091555 69 0 0.0 0.0 0.00 0.00 0.00 88 1018.7
20260902091025 69 0 0.0 0.0 0.00 0.00 0.00 88 1018.8
20260902090935 70 186 0.0 0.0 0.00 0.00 0.00 88 1020.8
20260902090524 69 0 0.0 0.0 0.00 0.00 0.00 88 1018.8
20260902090055 69 0 0.0 0.0 0.00 0.00 0.00 88 1018.7
20260902085937 70 186 0.0 0.0 0.00 0.00 0.00 88 1020.8
20260902085524 70 0 0.0 1.0 0.00 0.00 0.00 88 1018.7
20260902085024 70 0 0.0 1.0 0.00 0.00 0.00 88 1018.6
20260902084905 70 186 0.0 0.0 0.00 0.00 0.00 88 1020.7
20260902084552 70 0 0.0 1.0 0.00 0.00 0.00 88 1018.6
20260902084027 70 0 0.0 0.0 0.00 0.00 0.00 88 1018.6
20260902083859 70 186 0.0 0.0 0.00 0.00 0.00 88 1020.7
20260902083527 70 0 0.0 0.0 0.00 0.00 0.00 88 1018.6
20260902083052 70 0 0.0 0.0 0.00 0.00 0.00 88 1018.5
20260902082525 70 0 0.0 1.0 0.00 0.00 0.00 88 1018.6
20260902082025 70 0 0.0 1.0 0.00 0.00 0.00 88 1018.6
20260902081746 71 186 0.0 0.0 0.00 0.00 0.00 88 1020.5
20260902081608 70 0 0.0 1.0 0.00 0.00 0.00 88 1018.4
20260902081024 70 0 0.0 0.0 0.00 0.00 0.00 88 1018.4
20260902080717 71 186 0.0 0.0 0.00 0.00 0.00 88 1020.4
20260902080524 70 0 0.0 1.0 0.00 0.00 0.00 88 1018.5
20260902080046 70 0 0.0 1.0 0.00 0.00 0.00 88 1018.3
20260902075740 71 186 0.0 0.0 0.00 0.00 0.00 88 1020.4
20260902075523 70 0 0.0 0.0 0.00 0.00 0.00 88 1018.5
20260902075023 70 0 0.0 1.0 0.00 0.00 0.00 88 1018.4
20260902074745 71 186 0.0 0.0 0.00 0.00 0.00 88 1020.5
20260902074555 70 0 0.0 1.0 0.00 0.00 0.00 88 1018.4
20260902074025 70 186 0.0 1.0 0.00 0.00 0.00 88 1018.5
20260902073715 71 181 0.0 0.0 0.00 0.00 0.00 88 1020.6
20260902073525 70 0 0.0 1.0 0.00 0.00 0.00 88 1018.5
20260902073047 71 0 0.0 0.0 0.00 0.00 0.00 88 1018.5
20260902072525 71 0 0.0 1.0 0.00 0.00 0.00 88 1018.5
20260902072026 71 0 0.0 1.0 0.00 0.00 0.00 88 1018.6
20260902071559 71 0 0.0 1.0 0.00 0.00 0.00 88 1018.6
20260902071025 71 0 0.0 0.0 0.00 0.00 0.00 88 1018.5
20260902070524 71 0 0.0 0.0 0.00 0.00 0.00 87 1018.5
20260902070336 71 181 0.0 0.0 0.00 0.00 0.00 87 1020.6
20260902070044 71 0 0.0 0.0 0.00 0.00 0.00 87 1018.6
20260902065521 71 0 0.0 0.0 0.00 0.00 0.00 87 1018.5
20260902065307 72 181 0.0 0.0 0.00 0.00 0.00 87 1020.6
20260902065024 71 0 0.0 0.0 0.00 0.00 0.00 88 1018.6
20260902064541 71 0 0.0 0.0 0.00 0.00 0.00 87 1018.5
20260902064311 72 181 0.0 0.0 0.00 0.00 0.00 87 1020.6
20260902064024 71 0 0.0 0.0 0.00 0.00 0.00 87 1018.5
20260902063528 72 0 0.0 0.0 0.00 0.00 0.00 87 1018.5
20260902063334 72 181 0.0 0.0 0.00 0.00 0.00 87 1020.6
20260902063051 72 0 0.0 0.0 0.00 0.00 0.00 87 1018.5
20260902062525 71 0 0.0 1.0 0.00 0.00 0.00 87 1018.6
20260902062313 72 181 0.0 0.0 0.00 0.00 0.00 87 1020.6
20260902062025 71 0 0.0 1.0 0.00 0.00 0.00 87 1018.6
20260902061549 72 0 0.0 1.0 0.00 0.00 0.00 87 1018.6
20260902061303 72 181 0.0 0.0 0.00 0.00 0.00 87 1020.5
20260902061025 72 0 0.0 0.0 0.00 0.00 0.00 87 1018.5
20260902060523 72 0 0.0 0.0 0.00 0.00 0.00 87 1018.6
20260902060233 72 181 0.0 0.0 0.00 0.00 0.00 87 1020.6
20260902055525 72 0 0.0 0.0 0.00 0.00 0.00 87 1018.5
20260902055223 73 181 0.0 0.0 0.00 0.00 0.00 87 1020.5
20260902055026 72 0 0.0 1.0 0.00 0.00 0.00 87 1018.5
20260902054549 72 0 0.0 1.0 0.00 0.00 0.00 87 1018.5
20260902054024 72 0 0.0 1.0 0.00 0.00 0.00 87 1018.5
20260902053526 72 0 0.0 1.0 0.00 0.00 0.00 87 1018.4
20260902053042 73 181 0.0 0.0 0.00 0.00 0.00 87 1020.4
20260902052529 72 0 0.0 0.0 0.00 0.00 0.00 87 1018.3
20260902052106 73 181 0.0 0.0 0.00 0.00 0.00 87 1020.4
20260902052024 72 0 0.0 0.0 0.00 0.00 0.00 87 1018.2
20260902051542 72 0 0.0 0.0 0.00 0.00 0.00 87 1018.3
20260902051116 73 181 0.0 0.0 0.00 0.00 0.00 87 1020.2
20260902051024 73 0 0.0 1.0 0.00 0.00 0.00 87 1018.2
20260902050527 73 0 0.0 1.0 0.00 0.00 0.00 87 1018.1
20260902050124 73 181 0.0 0.0 0.00 0.00 0.00 87 1020.2
20260902050107 73 0 0.0 0.0 0.00 0.00 0.00 87 1018.2
20260902045525 73 0 0.0 0.0 0.00 0.00 0.00 87 1018.1
20260902045127 73 181 0.0 0.0 0.00 0.00 0.00 87 1020.2
20260902045025 73 0 0.0 0.0 0.00 0.00 0.00 87 1018.1
20260902044605 73 0 0.0 1.0 0.00 0.00 0.00 87 1018.1
20260902044053 73 181 0.0 0.0 0.00 0.00 0.00 87 1020.1
20260902044023 73 0 0.0 1.0 0.00 0.00 0.00 87 1018.0
20260902043522 73 0 0.0 1.0 0.00 0.00 0.00 87 1018.0
20260902043041 73 0 0.0 0.0 0.00 0.00 0.00 87 1018.0
20260902042524 73 0 0.0 0.0 0.00 0.00 0.00 87 1018.0
20260902042026 73 0 0.0 0.0 0.00 0.00 0.00 87 1017.9
20260902042016 73 181 0.0 0.0 0.00 0.00 0.00 87 1020.0
20260902041552 73 0 0.0 0.0 0.00 0.00 0.00 87 1018.0
20260902041026 73 0 0.0 1.0 0.00 0.00 0.00 87 1017.9
20260902040947 74 181 0.0 0.0 0.00 0.00 0.00 87 1020.0
20260902040525 73 0 0.0 1.0 0.00 0.00 0.00 87 1018.0
20260902040053 73 0 0.0 1.0 0.00 0.00 0.00 87 1018.1
20260902035929 74 181 0.0 0.0 0.00 0.00 0.00 87 1020.1
20260902035524 73 0 0.0 1.0 0.00 0.00 0.00 87 1018.1
20260902035027 73 0 0.0 1.0 0.00 0.00 0.00 86 1018.1
20260902034936 74 181 0.0 0.0 0.00 0.00 0.00 86 1020.2
20260902034554 73 0 0.0 0.0 0.00 0.00 0.00 86 1018.2
20260902034024 74 0 0.0 0.0 0.00 0.00 0.00 87 1018.2
20260902034000 74 181 0.0 0.0 0.00 0.00 0.00 86 1020.3
20260902033523 74 0 0.0 0.0 0.00 0.00 0.00 86 1018.1
20260902033041 74 0 0.0 1.0 0.00 0.00 0.00 86 1018.1
20260902032953 74 181 0.0 0.0 0.00 0.00 0.00 86 1020.2
20260902032524 74 0 0.0 1.0 0.00 0.00 0.00 86 1018.1
20260902032027 74 0 0.0 1.0 0.00 0.00 0.00 86 1018.0
20260902031929 74 181 0.0 0.0 0.00 0.00 0.00 86 1020.1
20260902031553 74 0 0.0 1.0 0.00 0.00 0.00 86 1018.1
20260902031024 74 181 0.0 1.0 0.00 0.00 0.00 86 1018.1
20260902030910 74 181 0.0 0.0 0.00 0.00 0.00 86 1020.0
20260902030524 74 0 0.0 1.0 0.00 0.00 0.00 86 1018.0
20260902030047 74 0 0.0 1.0 0.00 0.00 0.00 86 1018.0
20260902025905 75 181 0.0 0.0 0.00 0.00 0.00 86 1020.1
20260902025524 74 0 0.0 1.0 0.00 0.00 0.00 86 1018.0
20260902025024 74 0 0.0 1.0 0.00 0.00 0.00 86 1018.0
20260902024918 75 181 0.0 0.0 0.00 0.00 0.00 86 1020.1
20260902024553 74 0 0.0 1.0 0.00 0.00 0.00 86 1018.1
20260902024023 74 0 0.0 1.0 0.00 0.00 0.00 86 1018.1
20260902023855 75 181 0.0 0.0 0.00 0.00 0.00 86 1020.2
20260902023524 74 0 0.0 1.0 0.00 0.00 0.00 86 1018.1
20260902023043 75 0 0.0 1.0 0.00 0.00 0.00 86 1018.0
20260902022920 75 181 0.0 0.0 0.00 0.00 0.00 86 1020.1
20260902022524 75 0 0.0 1.0 0.00 0.00 0.00 86 1018.0
20260902022029 75 0 0.0 1.0 0.00 0.00 0.00 86 1018.0
20260902021554 75 0 0.0 1.0 0.00 0.00 0.00 86 1018.0
20260902021027 75 0 0.0 0.0 0.00 0.00 0.00 85 1017.9
20260902020844 76 181 0.0 0.0 0.00 0.00 0.00 85 1020.0
20260902020523 75 0 0.0 0.0 0.00 0.00 0.00 85 1017.9
20260902020040 75 0 0.0 2.0 0.00 0.00 0.00 85 1017.9
20260902015908 76 181 0.0 0.0 0.00 0.00 0.00 85 1019.9
20260902015525 76 0 0.0 2.0 0.00 0.00 0.00 85 1017.8
20260902015024 76 181 0.0 2.0 0.00 0.00 0.00 85 1017.6
20260902014918 76 181 0.0 0.0 0.00 0.00 0.00 85 1019.7
20260902014542 76 0 0.0 1.0 0.00 0.00 0.00 85 1017.6
20260902014026 76 0 0.0 1.0 0.00 0.00 0.00 85 1017.6
20260902013925 77 181 0.0 0.0 0.00 0.00 0.00 85 1019.6
20260902013524 76 0 0.0 1.0 0.00 0.00 0.00 84 1017.5
20260902013047 77 181 0.0 1.0 0.00 0.00 0.00 84 1017.4
20260902012904 77 181 0.0 0.0 0.00 0.00 0.00 84 1019.5
20260902012525 77 0 0.0 1.0 0.00 0.00 0.00 84 1017.4
20260902012025 77 0 0.0 1.0 0.00 0.00 0.00 84 1017.4
20260902011832 77 181 0.0 0.0 0.00 0.00 0.00 84 1019.4
20260902011546 77 0 0.0 1.0 0.00 0.00 0.00 84 1017.3
20260902011023 77 0 0.0 1.0 0.00 0.00 0.00 83 1017.3
20260902010523 77 0 0.0 1.0 0.00 0.00 0.00 83 1017.3
20260902010044 78 0 0.0 1.0 0.00 0.00 0.00 82 1017.2
20260902005640 78 181 0.0 0.0 0.00 0.00 0.00 82 1019.1
20260902005523 78 0 0.0 1.0 0.00 0.00 0.00 82 1017.1
20260902005024 78 181 0.0 1.0 0.00 0.00 0.00 82 1017.1
20260902004638 79 181 0.0 0.0 0.00 0.00 0.00 82 1018.9
20260902004552 78 0 0.0 1.0 0.00 0.00 0.00 82 1017.0
20260902004025 78 181 0.0 1.0 0.00 0.00 0.00 83 1017.0
20260902003525 79 181 0.0 1.0 0.00 0.00 0.00 82 1017.0
20260902003048 79 0 0.0 1.0 0.00 0.00 0.00 83 1017.0
20260902002523 79 0 0.0 1.0 0.00 0.00 0.00 81 1017.0
20260902002024 80 0 0.0 1.0 0.00 0.00 0.00 80 1017.0
20260902001541 80 181 0.0 1.0 0.00 0.00 0.00 79 1017.0
20260902001402 81 181 0.0 0.0 0.00 0.00 0.00 79 1019.0
20260902001032 81 0 0.0 1.0 0.00 0.00 0.00 78 1017.0
20260902000528 81 181 0.0 1.0 0.00 0.00 0.00 77 1016.9
20260902000421 82 181 0.0 0.0 0.00 0.00 0.00 77 1019.0
20260902000053 81 0 0.0 1.0 0.00 0.00 0.00 77 1017.0
20260901235525 82 181 0.0 1.0 0.00 0.00 0.00 78 1017.0
20260901235430 83 181 0.0 0.0 0.00 0.00 0.00 78 1019.0
20260901235025 82 0 0.0 1.0 0.00 0.00 0.00 78 1017.0
20260901234548 83 0 0.0 1.0 0.00 0.00 0.00 78 1016.9
20260901234422 83 181 0.0 0.0 0.00 0.00 0.00 77 1018.9
20260901234025 83 0 0.0 1.0 0.00 0.00 0.00 77 1017.0
20260901233523 84 181 0.0 1.0 0.00 0.00 0.00 76 1017.0
20260901233438 84 181 0.0 0.0 0.00 0.00 0.00 76 1019.0
20260901233043 84 0 0.0 1.0 0.00 0.00 0.00 75 1017.0
20260901232524 85 248 0.0 1.0 0.00 0.00 0.00 74 1017.2
20260901232027 85 0 0.0 1.0 0.00 0.00 0.00 72 1017.1
20260901231551 86 0 0.0 1.0 0.00 0.00 0.00 70 1017.2
20260901231230 86 248 0.0 0.0 0.00 0.00 0.00 69 1019.2
20260901231025 86 0 0.0 1.0 0.00 0.00 0.00 68 1017.3